Weather History for Kingston, Jamaica

Change the Weather History Date:

Friday, April 1, 2011

  Actual Average Record
Temperature  
Mean Temperature 82 °F -  
Max Temperature 88 °F 85 °F 89 °F (2013)
Min Temperature 76 °F 76 °F 73 °F (1997)
Cooling Degree Days 17    
Growing Degree Days 32 (Base 50)    
Moisture  
Dew Point 67 °F    
Average Humidity 64    
Maximum Humidity 74    
Minimum Humidity 52    
Precipitation  
Precipitation 0.00 in - - ()
Sea Level Pressure  
Sea Level Pressure 29.89 in    
Wind  
Wind Speed 15 mph ()    
Max Wind Speed 24 mph    
Max Gust Speed -    
Visibility 5.7 miles    
Events Rain    
Averages and records for this station are not official NWS values.
T = Trace of Precipitation, MM = Missing Value Source: Averaged Metar Reports

Daily Weather History Graph

Daily Weather History Graph

Search for Another Location

Airport:

Trip Planner

Search our weather history database for the weather conditions in past years. The results will help you decide how hot, cold, wet, or windy it might be!

Date:

Astronomy

Apr. 01, 2011 Rise Set
Actual Time 6:01 AM EST 6:20 PM EST
Civil Twilight 5:39 AM EST 6:42 PM EST
Nautical Twilight 5:14 AM EST 7:07 PM EST
Astronomical Twilight 4:48 AM EST 7:33 PM EST
Moon 4:35 AM EST (4/1) 4:57 PM EST (4/1)
Length of Visible Light 13h 02m
Length of Day
12h 18m
Waning Crescent, 3% of the Moon is Illuminated
Apr 1
Waning Crescent
Apr 3
New
Apr 11
First Quarter
Apr 17
Full
Apr 24
Last Quarter

Hourly Weather History & Observations

Time (EST) Temp. Heat Index Dew Point Humidity Pressure Visibility Wind Dir Wind Speed Gust Speed Precip Events Conditions
12:00 AM 77.0 °F - 68.0 °F 74% 29.89 in 6.2 mi ESE 16.1 mph - N/A   Partly Cloudy
1:00 AM 78 °F - 67 °F 60% 29.88 in 4 mi ESE 12.7 mph - - Rain Light Rain Showers
1:00 AM 77.0 °F - 66.2 °F 69% 29.86 in 6.2 mi ESE 12.7 mph - N/A   Partly Cloudy
2:00 AM 77.0 °F - 68.0 °F 74% 29.86 in 6.2 mi ESE 13.8 mph - N/A   Scattered Clouds
3:00 AM 77.0 °F - 68.0 °F 74% 29.83 in 6.2 mi ESE 15.0 mph - N/A   Scattered Clouds
4:00 AM 78 °F - 67 °F 61% 29.84 in 4 mi ESE 17.3 mph - -   Haze
4:00 AM 77.0 °F - 66.2 °F 69% 29.83 in 6.2 mi ESE 17.3 mph - N/A   Partly Cloudy
5:00 AM - - - N/A% - - North - - N/A   Unknown
6:00 AM 77.0 °F - 66.2 °F 69% 29.86 in 6.2 mi ESE 16.1 mph - N/A   Partly Cloudy
7:00 AM 78 °F - 67 °F 62% 29.89 in - ESE 17.3 mph - -   Haze
7:00 AM 78.8 °F - 68.0 °F 69% 29.89 in 6.2 mi ESE 17.3 mph - N/A   Partly Cloudy
8:00 AM 80.6 °F 83.2 °F 68.0 °F 65% 29.92 in 6.2 mi ESE 16.1 mph - N/A   Mostly Cloudy
9:00 AM 80.6 °F 83.2 °F 68.0 °F 65% 29.92 in 6.2 mi ESE 19.6 mph - N/A   Mostly Cloudy
10:00 AM 82 °F - 68 °F 54% 29.95 in 4 mi ESE 19.6 mph - -   Haze
10:00 AM 82.4 °F 85.4 °F 68.0 °F 62% 29.95 in 6.2 mi ESE 19.6 mph - N/A   Mostly Cloudy
11:00 AM 84.2 °F 87.3 °F 68.0 °F 58% 29.92 in 6.2 mi ESE 19.6 mph - N/A   Scattered Clouds
12:00 PM 84.2 °F 88.4 °F 69.8 °F 62% 29.92 in 6.2 mi ESE 18.4 mph - N/A   Scattered Clouds
1:00 PM 83 °F - 68 °F 52% 29.91 in 4 mi ESE 24.2 mph - -   Haze
1:00 PM 82.4 °F 85.4 °F 68.0 °F 62% 29.89 in 6.2 mi ESE 24.2 mph - N/A   Scattered Clouds
2:00 PM 82.4 °F 86.3 °F 69.8 °F 66% 29.89 in 6.2 mi ESE 17.3 mph - N/A   Mostly Cloudy
3:00 PM 82.4 °F 85.4 °F 68.0 °F 62% 29.86 in 6.2 mi ESE 20.7 mph - N/A   Mostly Cloudy
4:00 PM 82.4 °F 85.4 °F 68.0 °F 62% 29.86 in 6.2 mi ESE 18.4 mph - N/A   Mostly Cloudy
5:00 PM 80.6 °F 83.2 °F 68.0 °F 65% 29.86 in 6.2 mi ESE 19.6 mph - N/A   Mostly Cloudy
6:00 PM 78.8 °F - 68.0 °F 69% 29.89 in 6.2 mi ESE 18.4 mph - N/A   Mostly Cloudy
7:00 PM 79 °F - 66 °F 57% 29.91 in 3 mi ESE 12.7 mph - -   Haze
7:00 PM 78.8 °F - 66.2 °F 65% 29.89 in 6.2 mi ESE 12.7 mph - N/A   Mostly Cloudy
8:00 PM 78.8 °F - 66.2 °F 65% 29.92 in 6.2 mi ESE 15.0 mph - N/A   Mostly Cloudy
9:00 PM 78.8 °F - 66.2 °F 65% 29.95 in 6.2 mi ESE 12.7 mph - N/A   Mostly Cloudy
10:00 PM 78 °F - 64 °F 54% 29.95 in 4 mi ESE 11.5 mph - -   Haze
10:00 PM 78.8 °F - 64.4 °F 61% 29.95 in 6.2 mi ESE 11.5 mph - N/A   Mostly Cloudy